User: anonymous   Login
Location: Unspecified
(0.0000°N, 0.0000°E)
Time: 20:39:51
(UTC+00:00)
Language:

FENGYUN 1C DEB - Orbit

View from above orbital plane
View from above orbital plane
View from above satellite
View from above satellite

Ground track
Ground track

The orbit data is extracted from the following two-line orbital elements,

1 32332U 99025CXZ 24057.95434710  .00002901  00000-0  16129-2 0  9992
2 32332  99.1819 110.3237 0302406 299.8846  57.2583 13.91225109839104
Epoch (UTC): 26 February 2024 22:54:15
Eccentricity: 0.0302406
inclination: 99.1819°
perigee height: 703 km
apogee height: 1145 km
right ascension of ascending node: 110.3237°
argument of perigee: 299.8846°
revolutions per day: 13.91225109
mean anomaly at epoch: 57.2583°
orbit number at epoch: 83910

The dashed part of the orbit path shows where the satellite is in the earth's shadow,  

DLR